[[{"header":{"parameterUnit":"m.s-1","parameterCategory":1,"la1":30.2991,"la2":30.254,"lo1":-89.0895,"lo2":-89.0444,"dy":0.0017,"dx":0.0017,"nx":28,"ny":28,"refTime":"2024-05-28T21:00:00:Z","depth":0,"parameterNumber":2,"parameterNumberName":"U-component_of_WINDS"},"data":[0,0,0,0,0,0,0,0,0,0,0,0,0,0,0,0,0,0,0,0,0,0,0,0,0,0,0,0,0,0,0,0,0,0,0,0,0,0,0,0,0,0,0,0,0,0,0,0,0,0,0,0,0,0,0,0,0,0,-1.251,-1.2509,0,-1.2364,-1.2362,-1.2361,-1.2244,-1.2243,-1.2242,-1.2241,-1.2093,-1.209,-1.2087,0,0,0,0,0,0,0,0,0,0,0,0,0,-1.269,-1.2688,-1.251,-1.2508,-1.2507,-1.2364,-1.2362,-1.236,-1.2244,-1.2243,-1.2242,-1.224,-1.2093,-1.209,-1.2087,0,0,0,0,0,0,0,0,0,0,0,0,0,-1.2585,-1.2687,-1.2511,-1.2432,-1.2423,-1.2365,-1.2362,-1.236,-1.2245,-1.2243,-1.2241,-1.224,-1.2095,-1.209,-1.2086,-1.2095,0,0,-1.2073,-1.2071,0,0,0,0,0,0,0,0,-1.2591,-1.2579,-1.2445,-1.2437,-1.2427,-1.2321,-1.2371,-1.2271,-1.2245,-1.2313,-1.2241,-1.2239,-1.217,-1.2159,-1.2136,-1.2088,-1.2082,-1.2073,-1.207,-1.2068,-1.2067,0,0,0,0,0,0,0,-1.2599,-1.2584,-1.2452,-1.2443,-1.2432,-1.2404,-1.2387,-1.2352,-1.2253,-1.2306,-1.2298,-1.2282,-1.2165,-1.214,-1.2132,-1.208,-1.2073,-1.2069,-1.2066,-1.2065,-1.2034,-1.2035,0,0,0,0,0,0,-1.2618,-1.2591,-1.2457,-1.2448,-1.2507,-1.2402,-1.2383,-1.2357,-1.2253,-1.2235,-1.2284,-1.2277,-1.2148,-1.2137,-1.2126,-1.2131,-1.2068,-1.2064,-1.2062,-1.2032,-1.2034,-1.2036,0,0,0,0,0,0,-1.2622,-1.2607,-1.2463,-1.2517,-1.2497,-1.2401,-1.2372,-1.2355,-1.233,-1.2236,-1.2218,-1.2277,-1.2147,-1.2132,-1.2104,-1.2124,-1.2062,-1.2059,-1.203,-1.2032,-1.2035,-1.214,0,0,0,0,0,0,-1.2628,-1.2609,-1.2611,-1.2518,-1.2494,-1.2443,-1.2373,-1.2353,-1.2323,-1.2313,-1.2224,-1.2208,-1.2144,-1.2111,-1.21,-1.2117,-1.2055,-1.2028,-1.2031,-1.2034,-1.2135,-1.2146,-1.2156,0,0,0,0,0,-1.2635,-1.2647,-1.2612,-1.2597,-1.2495,-1.2445,-1.2431,-1.2357,-1.2325,-1.2327,-1.2266,-1.2211,-1.2123,-1.2109,-1.2095,-1.2112,-1.2026,-1.203,-1.2034,-1.213,-1.2144,-1.2156,0,0,0,0,0,0,-1.2745,-1.2633,-1.2593,-1.2575,-1.252,-1.2425,-1.2425,-1.2374,-1.2327,-1.232,-1.223,-1.2211,-1.2193,-1.2149,-1.2135,-1.2116,-1.2068,-1.2069,-1.2145,-1.2158,-1.2169,-1.218,-1.2052,0,0,0,0,0,-1.2767,-1.2736,-1.2639,-1.2633,-1.2607,-1.2521,-1.2497,-1.2444,-1.2384,-1.236,-1.2297,-1.2242,-1.2201,-1.2177,-1.2135,-1.2127,-1.2107,-1.2132,-1.2143,-1.2152,-1.2155,-1.2149,-1.216,-1.2049,-1.2049,-1.2048,0,0,-1.2813,-1.2748,-1.2733,-1.2653,-1.2605,-1.2575,-1.2502,-1.2473,-1.2451,-1.2356,-1.2326,-1.2278,-1.221,-1.2193,-1.2182,-1.2156,-1.2181,-1.2157,-1.2165,-1.2163,-1.2155,-1.2165,-1.2175,-1.2051,-1.2051,-1.205,0,0,-1.2881,-1.2828,-1.2817,-1.277,-1.2697,-1.264,-1.2638,-1.255,-1.2515,-1.2483,-1.2412,-1.2384,-1.2316,-1.2271,-1.2239,-1.2292,-1.224,-1.228,-1.2337,-1.2333,-1.2342,-1.2349,-1.237,-1.2378,-1.2283,-1.2283,-1.2283,0,-1.2947,-1.2899,-1.2819,-1.2794,-1.2762,-1.2674,-1.2664,-1.2622,-1.254,-1.252,-1.2491,-1.2405,-1.2353,-1.2325,-1.2338,-1.2314,-1.231,-1.2291,-1.2347,-1.2353,-1.2359,-1.2378,-1.2386,-1.2289,-1.2288,-1.2288,-1.2287,0,-1.2985,-1.2952,-1.2953,-1.2875,-1.2843,-1.2826,-1.2744,-1.2721,-1.2671,-1.2618,-1.2588,-1.2522,-1.2466,-1.2455,-1.2406,-1.242,-1.2406,-1.2364,-1.2314,-1.2377,-1.2393,-1.2399,-1.2297,-1.2295,-1.2293,-1.2292,0,0,-1.3119,-1.2998,-1.2999,-1.2964,-1.2878,-1.2851,-1.2831,-1.2775,-1.2758,-1.2704,-1.2686,-1.2631,-1.2591,-1.2556,-1.2501,-1.2497,-1.2546,-1.2454,-1.2452,-1.2476,-1.256,-1.2594,-1.2603,-1.251,-1.2511,-1.2512,-1.2566,0,-1.3174,-1.3132,-1.306,-1.3041,-1.3012,-1.2928,-1.2911,-1.2856,-1.2806,-1.2774,-1.2717,-1.2681,-1.263,-1.2608,-1.26,-1.2541,-1.2562,-1.2536,-1.2493,-1.2493,-1.2515,-1.2611,-1.2647,-1.2701,-1.2572,-1.2572,-1.2573,0,-1.3234,-1.3185,-1.3164,-1.3081,-1.3066,-1.3052,-1.2996,-1.2966,-1.2903,-1.2866,-1.2827,-1.2768,-1.2743,-1.2696,-1.2662,-1.2646,-1.2624,-1.2593,-1.2593,-1.2588,-1.2538,-1.261,-1.2717,-1.2726,-1.2582,-1.2581,-1.2581,0,-1.3336,-1.3265,-1.3244,-1.3216,-1.3118,-1.311,-1.3069,-1.3004,-1.2977,-1.2928,-1.2909,-1.2859,-1.2832,-1.2794,-1.2723,-1.2696,-1.2697,-1.2644,-1.2667,-1.267,-1.2673,-1.2674,-1.2779,-1.2656,-1.2656,-1.2656,-1.2656,0,-1.3407,-1.3398,-1.3289,-1.3276,-1.3264,-1.3181,-1.3171,-1.3123,-1.3066,-1.3043,-1.2967,-1.2948,-1.2854,-1.2824,-1.2768,-1.2749,-1.2737,-1.2708,-1.2693,-1.2715,-1.2719,-1.2701,-1.2696,-1.2658,-1.2657,-1.2657,-1.2657,0,-1.352,-1.3446,-1.3418,-1.3328,-1.3305,-1.33,-1.3223,-1.3208,-1.3153,-1.3125,-1.3114,-1.3028,-1.2988,-1.2913,-1.2853,-1.2815,-1.2809,-1.2783,-1.2831,-1.2822,-1.285,-1.285,-1.2949,-1.2958,-1.2828,-1.283,-1.2831,0,-1.3571,-1.3562,-1.3471,-1.3451,-1.3412,-1.338,-1.3351,-1.3269,-1.3242,-1.3171,-1.3165,-1.3119,-1.3079,-1.302,-1.2952,-1.2906,-1.2879,-1.2917,-1.2872,-1.2895,-1.2882,-1.2884,-1.2884,-1.2928,-1.293,-1.2931,-1.2933,0,-1.367,-1.3634,-1.3595,-1.3545,-1.3512,-1.3468,-1.342,-1.3408,-1.3315,-1.3289,-1.3248,-1.3216,-1.3155,-1.3111,-1.3055,-1.3013,-1.2959,-1.2947,-1.2951,-1.2974,-1.3003,-1.299,-1.2861,-1.2946,-1.2944,-1.2943,-1.2943,-1.2942,-1.3754,-1.3743,-1.3678,-1.3638,-1.3593,-1.3551,-1.3533,-1.3476,-1.3439,-1.3383,-1.3337,-1.33,-1.3239,-1.3158,-1.312,-1.309,-1.3064,-1.3068,-1.3069,-1.3072,-1.3082,-1.3007,-1.3079,-1.3079,-1.3078,-1.3078,-1.3078,0,-1.3851,-1.3805,-1.3769,-1.3705,-1.3674,-1.3623,-1.3568,-1.3546,-1.3514,-1.3461,-1.3423,-1.3377,-1.3334,-1.3264,-1.3216,-1.3206,-1.318,-1.3197,-1.3198,-1.3189,-1.3108,-1.311,-1.3219,-1.3219,-1.3219,-1.3219,-1.3219,-1.3219,-1.3898,-1.3877,-1.3834,-1.3791,-1.3745,-1.3708,-1.3681,-1.3642,-1.3599,-1.3551,-1.3516,-1.347,-1.341,-1.3358,-1.3317,-1.3297,-1.3284,-1.331,-1.3283,-1.3208,-1.3195,-1.3182,-1.3185,-1.3307,-1.3307,-1.3367,-1.3367,-1.3368]},{"header":{"parameterUnit":"m.s-1","parameterCategory":1,"la1":30.2991,"la2":30.254,"lo1":-89.0895,"lo2":-89.0444,"dy":0.0017,"dx":0.0017,"nx":28,"ny":28,"refTime":"2024-05-28T21:00:00:Z","depth":0,"parameterNumber":3,"parameterNumberName":"V-component_of_WINDS"},"data":[0,0,0,0,0,0,0,0,0,0,0,0,0,0,0,0,0,0,0,0,0,0,0,0,0,0,0,0,0,0,0,0,0,0,0,0,0,0,0,0,0,0,0,0,0,0,0,0,0,0,0,0,0,0,0,0,0,0,1.2861,1.286,0,1.2769,1.2768,1.2767,1.2662,1.2661,1.2659,1.2658,1.256,1.2559,1.2558,0,0,0,0,0,0,0,0,0,0,0,0,0,1.2947,1.2946,1.2862,1.286,1.2859,1.2769,1.2768,1.2766,1.2663,1.2661,1.2659,1.2657,1.2561,1.2559,1.2558,0,0,0,0,0,0,0,0,0,0,0,0,0,1.2887,1.2945,1.2862,1.2797,1.279,1.2769,1.2768,1.2766,1.2663,1.2661,1.2658,1.2656,1.2561,1.2559,1.2558,1.2593,0,0,1.2552,1.2551,0,0,0,0,0,0,0,0,1.2891,1.2884,1.2807,1.2801,1.2793,1.2725,1.2762,1.2708,1.2664,1.2711,1.2658,1.2655,1.2617,1.261,1.2598,1.2588,1.2584,1.2552,1.2551,1.255,1.255,0,0,0,0,0,0,0,1.2895,1.2888,1.2825,1.2806,1.2798,1.2771,1.276,1.2751,1.2678,1.2707,1.2699,1.269,1.2612,1.26,1.2595,1.2582,1.2552,1.2551,1.2549,1.2549,1.2595,1.2597,0,0,0,0,0,0,1.2909,1.2892,1.2828,1.2822,1.2838,1.2772,1.2759,1.2749,1.2678,1.2665,1.2692,1.2685,1.2604,1.2597,1.2591,1.2624,1.255,1.2549,1.2548,1.2592,1.2595,1.2598,0,0,0,0,0,0,1.2912,1.2905,1.2831,1.2855,1.2843,1.2773,1.2762,1.2749,1.2736,1.2666,1.2652,1.2692,1.2602,1.2593,1.2593,1.262,1.2548,1.2546,1.259,1.2593,1.2596,1.2694,0,0,0,0,0,0,1.2914,1.2906,1.2919,1.2856,1.2843,1.2836,1.2764,1.2748,1.2733,1.2724,1.2663,1.2651,1.2599,1.2596,1.2591,1.2616,1.2545,1.2587,1.2591,1.2595,1.2688,1.27,1.2711,0,0,0,0,0,1.2918,1.295,1.292,1.2913,1.2857,1.2837,1.283,1.277,1.2736,1.2747,1.2703,1.2653,1.2619,1.2597,1.259,1.2615,1.2585,1.259,1.2595,1.2683,1.2698,1.271,0,0,0,0,0,0,1.3017,1.294,1.2906,1.2919,1.2886,1.282,1.2833,1.2789,1.2763,1.2755,1.2683,1.267,1.2677,1.2647,1.2624,1.2644,1.2594,1.2598,1.2663,1.2677,1.2688,1.2693,1.2543,0,0,0,0,0,1.3041,1.3032,1.2965,1.2983,1.2968,1.2904,1.2893,1.2851,1.2812,1.2797,1.2753,1.2717,1.2697,1.2686,1.2665,1.2685,1.2668,1.2699,1.271,1.272,1.2723,1.2728,1.274,1.2614,1.2614,1.2614,0,0,1.3089,1.3046,1.3044,1.3002,1.2971,1.2961,1.2892,1.2886,1.2878,1.2796,1.2791,1.2758,1.2713,1.2722,1.2724,1.2697,1.2755,1.2726,1.2735,1.2732,1.2734,1.2746,1.2757,1.2618,1.2617,1.2617,0,0,1.3171,1.3139,1.3149,1.312,1.3074,1.3031,1.3034,1.2975,1.295,1.2945,1.2883,1.2873,1.2842,1.2811,1.2792,1.2865,1.2816,1.286,1.2918,1.2924,1.2934,1.2942,1.2965,1.2974,1.2865,1.2865,1.2865,0,1.3235,1.322,1.3159,1.3156,1.3138,1.3066,1.3075,1.3049,1.2999,1.2988,1.2959,1.2918,1.2883,1.2883,1.29,1.2889,1.2887,1.2864,1.2938,1.2946,1.2952,1.2973,1.2982,1.287,1.2869,1.2869,1.2868,0,1.33,1.3291,1.3304,1.3257,1.3242,1.3245,1.3184,1.3176,1.3136,1.3096,1.3091,1.3048,1.3015,1.3013,1.2974,1.3006,1.2991,1.2952,1.2899,1.2971,1.2988,1.2996,1.2878,1.2876,1.2874,1.2873,0,0,1.3437,1.3359,1.3365,1.3342,1.3287,1.3278,1.3278,1.3248,1.324,1.3209,1.3205,1.3182,1.3145,1.3123,1.308,1.3087,1.3143,1.3046,1.3043,1.3062,1.3172,1.3199,1.3209,1.3112,1.3114,1.3115,1.3175,0,1.3506,1.3501,1.3447,1.3457,1.3446,1.3378,1.3378,1.3344,1.3308,1.3292,1.3252,1.3235,1.319,1.3176,1.3179,1.3135,1.3163,1.3131,1.3105,1.3105,1.3114,1.3219,1.3247,1.3306,1.3182,1.3183,1.3184,0,1.3584,1.3558,1.3567,1.3511,1.3505,1.3505,1.3472,1.346,1.342,1.3393,1.337,1.3322,1.3316,1.3271,1.3261,1.324,1.3227,1.3204,1.3205,1.3196,1.3145,1.321,1.3324,1.3331,1.3195,1.3194,1.3193,0,1.3679,1.3646,1.3646,1.363,1.3566,1.3568,1.3541,1.3499,1.3484,1.3456,1.3445,1.3417,1.34,1.3379,1.3324,1.3296,1.3319,1.3269,1.3294,1.3295,1.3297,1.3297,1.3407,1.3297,1.3297,1.3297,1.3297,0,1.3758,1.3765,1.3688,1.3688,1.3693,1.3633,1.364,1.3606,1.357,1.3561,1.3502,1.3495,1.3425,1.341,1.3368,1.3364,1.3358,1.3334,1.3322,1.3337,1.3339,1.3324,1.3317,1.3299,1.3299,1.3298,1.3298,0,1.3862,1.3811,1.3807,1.3748,1.3733,1.3739,1.3688,1.3685,1.3646,1.3636,1.363,1.3569,1.3548,1.3492,1.3457,1.3428,1.3435,1.3415,1.3448,1.344,1.3466,1.3463,1.3566,1.3575,1.3464,1.3465,1.3466,0,1.3914,1.3917,1.3859,1.385,1.3826,1.3811,1.3796,1.3737,1.3723,1.3678,1.368,1.3655,1.363,1.36,1.3551,1.3524,1.35,1.3538,1.3495,1.351,1.3496,1.3494,1.3493,1.3546,1.3548,1.3549,1.355,0,1.4009,1.3984,1.3964,1.3936,1.392,1.3894,1.3866,1.3861,1.3795,1.3782,1.376,1.3742,1.3707,1.3681,1.3646,1.3617,1.3571,1.3565,1.3568,1.3581,1.3598,1.3585,1.3469,1.3561,1.356,1.3559,1.3559,1.3558,1.4085,1.4085,1.4044,1.4024,1.3997,1.3971,1.3965,1.3926,1.3907,1.3874,1.3841,1.3822,1.3782,1.373,1.3705,1.3688,1.3665,1.3671,1.3671,1.3673,1.3678,1.3606,1.3682,1.3682,1.3682,1.3681,1.3681,0,1.4174,1.4145,1.4128,1.409,1.4074,1.4036,1.4002,1.3991,1.3975,1.3942,1.3921,1.3895,1.387,1.3821,1.3792,1.3788,1.3766,1.3782,1.3779,1.3772,1.3703,1.3701,1.38,1.38,1.38,1.38,1.38,1.38,1.4218,1.4215,1.4185,1.4168,1.4138,1.412,1.4103,1.4079,1.4052,1.4027,1.4007,1.3976,1.3935,1.3903,1.3878,1.3864,1.3854,1.3876,1.3855,1.3789,1.3778,1.3767,1.3764,1.3875,1.3875,1.3925,1.3926,1.3926]}]]